Content
SEND FEEDBACK

Daily
Averages
Monthly
Summary
China

XINJING, CHINA


Home > Asia > China
Elevation: 23 feet     Latitude: 31 12N     Longitude: 121 24E

WEATHER
 
SELECT A DAY
Number of Records: 201,968;   Date Range: 7/1/96 - 7/30/14
 
SHARE

PRINT THIS DATA

[ ← Previous Day ]
WEATHER ALMANAC - JANUARY 31, 2013
[ Next Day → ]
[ °C ]   °F
Weather ElementAverageHighLow
Temperature57.1 °F64.4 °F (1:30 pm)51.8 °F (12:30 am)
Dewpoint47.4 °F51.8 °F (9:30 am)42.8 °F (2:30 pm)
Humidity72.1 %94 % (5:30 am)45 % (3:30 pm)
Barometer30.13 in30.24 in (1:00 am)30.06 in (3:00 pm)
Wind Speed11.5 mph17.9 mph (6:00 am)
Wind Gust26.8 mph (10:30 am)
Weather ElementAverage
Visibility6.2 mi
Wind DirectionSSE (144.5 °)

Weather ElementTotal
Precipitation---
Heating Degree Days6.9 (Base 65)
Growing Degree Days8.1 (Base 50)
Averaged from 47 records on January 31, 2013
WEATHER CONDITIONS BREAKOUT
WIND DIRECTION BREAKOUT
WEATHER BY HOUR - JANUARY 31, 2013
[ °C ]   °F
Local TimeTemperatureDewpointHumidityBarometerVisibilityWind DirectionWind SpeedGust SpeedPrecipitationEventsConditions
12:30 AM51.8 °F46.4 °F82 %30.21 inSE (140°)13.4 mphClear
1:00 AM51.8 °F46.4 °F82 %30.24 inSE (140°)13.4 mphClear
1:30 AM51.8 °F48.2 °F88 %30.21 inSE (140°)13.4 mphClear
2:00 AM51.8 °F48.2 °F88 %30.21 inSE (140°)11.2 mphClear
2:30 AM51.8 °F48.2 °F88 %30.21 inSE (140°)15.7 mphClear
3:00 AM51.8 °F48.2 °F88 %30.18 inSE (140°)13.4 mphClear
3:30 AM51.8 °F48.2 °F88 %30.18 inSE (140°)13.4 mphClear
4:00 AM51.8 °F48.2 °F88 %30.18 inSE (140°)13.4 mphClear
4:30 AM51.8 °F48.2 °F88 %30.18 inSE (140°)11.2 mphClear
5:00 AM51.8 °F48.2 °F88 %30.15 inSE (130°)15.7 mphClear
5:30 AM51.8 °F50.0 °F94 %30.15 inSE (140°)15.7 mphClear
6:00 AM53.6 °F50.0 °F88 %30.18 inSSE (150°)17.9 mphClear
6:30 AM53.6 °F50.0 °F88 %30.18 inSSE (150°)11.2 mphClear
7:00 AM53.6 °F50.0 °F88 %30.18 inSSE (150°)11.2 mphClear
7:30 AM53.6 °F50.0 °F88 %30.21 inSouth (170°)4.5 mphClear
8:00 AM53.6 °F50.0 °F88 %30.21 in6.2 miSSE (150°)8.9 mphRainLight Rain
8:30 AM53.6 °F50.0 °F88 %30.21 in6.2 miSE (140°)11.2 mphRainLight Rain
9:00 AM53.6 °F50.0 °F88 %30.18 inSE (130°)13.4 mphClear
9:30 AM55.4 °F51.8 °F88 %30.18 inSSE (150°)13.4 mphClear
10:00 AM57.2 °F51.8 °F82 %30.18 inSSE (150°)13.4 mphClear
10:30 AM59.0 °F51.8 °F77 %30.18 inSE (140°)15.7 mph26.8 mphClear
11:00 AM60.8 °F50.0 °F68 %30.18 inSSE (150°)17.9 mphClear
11:30 AM60.8 °F46.4 °F59 %30.15 inSSE (150°)15.7 mphClear
12:00 PM62.6 °F46.4 °F55 %30.15 inSSE (150°)11.2 mphClear
12:30 PM62.6 °F44.6 °F52 %30.15 inSSE (150°)11.2 mphClear
1:00 PM62.6 °F44.6 °F52 %30.12 inSSE (150°)11.2 mphClear
1:30 PM64.4 °F44.6 °F49 %30.12 inSE (140°)11.2 mphClear
2:00 PM62.6 °F44.6 °F52 %30.09 inSE (140°)13.4 mphClear
2:30 PM62.6 °F42.8 °F48 %30.09 inSSE (150°)13.4 mphClear
3:00 PM62.6 °F42.8 °F48 %30.06 inSE (140°)13.4 mphClear
3:30 PM64.4 °F42.8 °F45 %30.06 inSE (140°)11.2 mphClear
4:00 PM62.6 °F42.8 °F48 %30.06 inSSE (150°)11.2 mphClear
4:30 PM62.6 °F42.8 °F48 %30.06 inSSE (150°)11.2 mphClear
5:00 PM60.8 °F44.6 °F55 %30.06 inSSE (150°)6.7 mphClear
5:30 PM60.8 °F44.6 °F55 %30.06 inSE (140°)8.9 mphClear
6:00 PM60.8 °F46.4 °F59 %30.06 inSSE (150°)11.2 mphClear
6:30 PM59.0 °F46.4 °F63 %30.09 inSSE (150°)8.9 mphClear
7:00 PM59.0 °F46.4 °F63 %30.06 inSE (140°)8.9 mphClear
7:30 PM59.0 °F46.4 °F63 %30.06 inSE (140°)8.9 mphClear
8:00 PM59.0 °F46.4 °F63 %30.06 inSE (140°)11.2 mphClear
8:30 PM57.2 °F46.4 °F67 %30.06 inSE (140°)8.9 mphClear
9:00 PM57.2 °F48.2 °F72 %30.06 inSE (140°)8.9 mphClear
9:30 PM57.2 °F48.2 °F72 %30.06 inSSE (150°)6.7 mphClear
10:00 PM57.2 °F48.2 °F72 %30.06 in6.2 miSSE (160°)8.9 mphRainLight Rain
10:30 PM57.2 °F48.2 °F72 %30.06 in6.2 miSSE (150°)6.7 mphRainLight Rain
11:00 PM55.4 °F50.0 °F82 %30.06 in6.2 miSE (140°)6.7 mphRainLight Rain
11:30 PM55.4 °F50.0 °F82 %30.06 in6.2 miSE (130°)4.5 mphRainLight Rain
Hourly data recorded from ZSSS, located miles away from Xinjing, China







STORIES FROM OUR PARTNERS